Regional Weather Roundup
Issued by NWS

Home | Current Version | Previous Version | Graphics & Text | Print | Product List | Glossary On
Versions: 1 2 3 4 5 6 7 8 9 10 11 12 13 14 15 16 17 18 19 20 21 22 23 24 25 26 27 28 29 30 31 32 33 34 35 36 37 38 39 40 41 42 43 44 45 46 47 48 49 50
000
ASUS43 KOAX 191910
RWRNE

WEATHER ROUNDUP FOR NEBRASKA
NATIONAL WEATHER SERVICE OMAHA NE
200 PM CDT FRI SEP 19 2014

NOTES: SATELLITE DATA IS BEING USED TO AUGMENT CLOUD COVER ABOVE
       12000 FEET.
       "FAIR" INDICATES FEW OR NO CLOUDS BELOW 12,000 FEET WITH NO
       SIGNIFICANT WEATHER AND/OR OBSTRUCTIONS TO VISIBILITY.

  * THESE STATIONS DO NOT REPORT WEATHER SUCH AS RAIN...SNOW OR FOG.

NEZ001>004-019>022-054>056-192000-
NEBRASKA PANHANDLE

CITY           SKY/WX    TMP DP  RH WIND       PRES   REMARKS
SCOTTSBLUFF    SUNNY     86  50  28 VRB6      29.91F
ALLIANCE       SUNNY     86  50  28 N9        29.89F
CHADRON        MOSUNNY   83  53  35 W8        29.85F
KIMBALL        SUNNY     86  43  21 N9        29.95S
SIDNEY         SUNNY     88  47  24 VRB5      29.94F
$$

NEZ057>060-069>072-079>082-192000-
SOUTHWEST NEBRASKA

CITY           SKY/WX    TMP DP  RH WIND       PRES   REMARKS
NORTH PLATTE   SUNNY     88  60  38 SW14      29.83F
IMPERIAL       SUNNY     90  53  28 S16G23    29.87F
LEXINGTON      SUNNY     86  64  47 SW15G23   29.87F
MCCOOK         SUNNY     92  55  28 SW22G28   29.87F HX  90
OGALLALA       SUNNY     91  48  22 SW10G16   29.85F
$$

NEZ005>010-023>029-035>040-094-192000-
NORTH CENTRAL NEBRASKA

CITY           SKY/WX    TMP DP  RH WIND       PRES   REMARKS
VALENTINE      SUNNY     88  54  31 VRB6      29.80S
AINSWORTH      SUNNY     82  60  47 NW8       29.81R
BROKEN BOW     SUNNY     89  60  37 SW16G29   29.82F
O`NEILL        SUNNY     89  62  40 SW15G22   29.75F
ORD            SUNNY     85  64  49 S18G25    29.80F
THEDFORD       SUNNY     92  54  27 W20       29.80S HX  90
$$

NEZ041-046>049-061>064-073>077-083>087-192000-
SOUTH CENTRAL NEBRASKA

CITY           SKY/WX    TMP DP  RH WIND       PRES   REMARKS
GRAND ISLAND   SUNNY     88  63  43 S22G30    29.85F
AURORA         SUNNY     87  58  38 S18G25    29.85F
HASTINGS       SUNNY     86  58  38 S12       29.87F
HEBRON         SUNNY     86  62  43 SW13G22   29.90F
HOLDREGE       SUNNY     85  61  44 SW14G26   29.88F
KEARNEY *      SUNNY     84  64  51 S21G28    29.87F
YORK           SUNNY     84  66  54 SW18G25   29.86F
$$

NEZ011>018-030>034-042>045-192000-
NORTHEAST NEBRASKA

CITY           SKY/WX    TMP DP  RH WIND       PRES   REMARKS
NORFOLK        SUNNY     87  64  46 SW25G35   29.77F
ALBION         SUNNY     86  63  46 S17       29.80F
BLAIR          SUNNY     83  68  59 S18       29.84F
COLUMBUS *     SUNNY     88  64  45 SW20      29.83F
FREMONT        SUNNY     85  64  49 S14G25    29.84F
TEKAMAH        SUNNY     87  66  49 S20G30    29.81F
WAYNE          SUNNY     87  65  48 SW20G30   29.77F
$$

NEZ050>053-065>068-078-088>093-192000-
SOUTHEAST NEBRASKA

CITY           SKY/WX    TMP DP  RH WIND       PRES   REMARKS
LINCOLN        SUNNY     88  64  44 SW21G28   29.86F
OMAHA EPPLEY   MOSUNNY   79  66  64 S18       29.86F
BEATRICE       SUNNY     86  66  51 SW20      29.89F
FALLS CITY     MOSUNNY   76  67  73 SE14      29.93F
NEBRASKA CITY  SUNNY     79  63  57 S15G21    29.91F
PLATTSMOUTH    SUNNY     80  66  62 SE12G18   29.89F
$$

NEZ044-045-051>053-067-192000-
OMAHA AREA

CITY           SKY/WX    TMP DP  RH WIND       PRES   REMARKS
OMAHA EPPLEY   MOSUNNY   79  66  64 S18       29.86F
BLAIR          SUNNY     83  68  59 S18       29.84F
FREMONT        SUNNY     85  64  49 S14G25    29.84F
MILLARD        SUNNY     82  69  65 S13G21    29.86F
OFFUTT AFB     SUNNY     79  72  77 S12G21    29.87F
PLATTSMOUTH    SUNNY     80  66  62 SE12G18   29.89F
WAHOO          FAIR      88  61  40 S16G26    29.84F
$$



USA.gov is the U.S. government's official web portal to all federal, state and local government web resources and services.